Weather History for Fort Leonard Wood, MO

Change the Weather History Date:

Friday, June 28, 2013

  Actual Average Record
Temperature  
Mean Temperature 76 °F -  
Max Temperature 86 °F 83 °F 103 °F (2012)
Min Temperature 66 °F 66 °F 53 °F (2006)
Cooling Degree Days 10    
Growing Degree Days 26 (Base 50)    
Moisture  
Dew Point 69 °F    
Average Humidity 90    
Maximum Humidity 100    
Minimum Humidity 48    
Precipitation  
Precipitation 1.90 in - - ()
Sea Level Pressure  
Sea Level Pressure 29.88 in    
Wind  
Wind Speed 9 mph (NW)    
Max Wind Speed 34 mph    
Max Gust Speed 58 mph    
Visibility 7 miles    
Events Fog , Rain , Thunderstorm    
Averages and records for this station are not official NWS values.
T = Trace of Precipitation, MM = Missing Value Source: NWS Daily Summary

Daily Weather History Graph

Daily Weather History Graph

Search for Another Location

Airport:

Trip Planner

Search our weather history database for the weather conditions in past years. The results will help you decide how hot, cold, wet, or windy it might be!

Date:

Astronomy

Jun. 28, 2013 Rise Set
Actual Time 5:49 AM CDT 8:34 PM CDT
Civil Twilight 5:18 AM CDT 9:05 PM CDT
Nautical Twilight 4:38 AM CDT 9:44 PM CDT
Astronomical Twilight 3:54 AM CDT 10:28 PM CDT
Moon No Moon Rise 11:50 AM CDT (6/28)
Length of Visible Light 15h 47m
Length of Day
14h 45m
Waning Gibbous, 66% of the Moon is Illuminated
Jun 28
Waning Gibbous
Jun 29
Last Quarter
Jul 8
New
Jul 15
First Quarter
Jul 22
Full

Hourly Weather History & Observations

Time (CDT) Temp. Heat Index Dew Point Humidity Pressure Visibility Wind Dir Wind Speed Gust Speed Precip Events Conditions
12:58 AM 75.6 °F - 75.4 °F 99% 29.88 in 10.0 mi ESE 2.3 mph - N/A   Scattered Clouds
1:12 AM 77.0 °F - 77.0 °F 100% 29.90 in 7.0 mi ENE 4.6 mph - N/A Rain Rain
1:23 AM 77.0 °F - 77.0 °F 100% 29.89 in 10.0 mi Variable 2.3 mph - N/A   Mostly Cloudy
1:27 AM 77.0 °F - 77.0 °F 100% 29.91 in 10.0 mi NW 8.1 mph - N/A Thunderstorm Thunderstorm
1:30 AM 77.0 °F - 77.0 °F 100% 29.90 in 3.0 mi North 23.0 mph 36.8 mph N/A Rain , Thunderstorm Light Thunderstorms and Rain
1:31 AM 77.0 °F - 77.0 °F 100% 29.90 in 3.0 mi North 20.7 mph 36.8 mph N/A Rain , Thunderstorm Light Thunderstorms and Rain
1:32 AM 77.0 °F - 75.2 °F 94% 29.89 in 2.0 mi NE 16.1 mph 36.8 mph N/A Rain , Thunderstorm Heavy Thunderstorms and Rain
1:36 AM 75.2 °F - 71.6 °F 89% 29.88 in 1.2 mi North 12.7 mph 36.8 mph N/A Rain , Thunderstorm Heavy Thunderstorms and Rain
1:37 AM 75.2 °F - 71.6 °F 89% 29.88 in 1.2 mi North 11.5 mph 36.8 mph N/A Rain , Thunderstorm Heavy Thunderstorms and Rain
1:38 AM 75.2 °F - 71.6 °F 89% 29.89 in 1.2 mi NNW 11.5 mph 36.8 mph N/A Rain , Thunderstorm Heavy Thunderstorms and Rain
1:43 AM 73.4 °F - 71.6 °F 94% 29.87 in 2.5 mi ENE 5.8 mph - N/A Rain , Thunderstorm Heavy Thunderstorms and Rain
1:44 AM 73.4 °F - 71.6 °F 94% 29.87 in 3.0 mi East 6.9 mph - N/A Rain , Thunderstorm Heavy Rain
1:58 AM 74.3 °F - 72.7 °F 95% 29.85 in 7.0 mi South 11.5 mph - 0.42 in Rain , Thunderstorm Light Rain
2:05 AM 75.2 °F - 75.2 °F 100% 29.83 in 8.0 mi SE 12.7 mph - N/A Rain , Thunderstorm Light Thunderstorms and Rain
2:15 AM 73.4 °F - 71.6 °F 94% 29.88 in 0.8 mi NW 34.5 mph 46.0 mph N/A Rain , Thunderstorm Light Thunderstorms and Rain
2:18 AM 71.6 °F - 71.6 °F 100% 29.88 in 0.5 mi NW 33.4 mph 57.5 mph N/A Fog , Rain , Thunderstorm Heavy Thunderstorms and Rain
2:23 AM 69.8 °F - 69.8 °F 100% 29.91 in 0.2 mi NW 24.2 mph 57.5 mph N/A Fog , Rain , Thunderstorm Heavy Thunderstorms and Rain
2:28 AM 68.0 °F - 68.0 °F 100% 29.91 in 0.2 mi NW 18.4 mph 51.8 mph N/A Fog , Rain , Thunderstorm Heavy Thunderstorms and Rain
2:33 AM 68.0 °F - 68.0 °F 100% 29.93 in 0.8 mi NNW 11.5 mph 36.8 mph N/A Rain , Thunderstorm Heavy Thunderstorms and Rain
2:38 AM 68.0 °F - 68.0 °F 100% 29.95 in 1.8 mi NW 8.1 mph 26.5 mph N/A Rain , Thunderstorm Heavy Thunderstorms and Rain
2:43 AM 68.0 °F - 68.0 °F 100% 29.96 in 3.0 mi Variable 6.9 mph - N/A Rain , Thunderstorm Heavy Thunderstorms and Rain
2:58 AM 68.0 °F - 68.0 °F 100% 29.91 in 9.0 mi NNW 8.1 mph - 1.39 in Rain , Thunderstorm Light Thunderstorms and Rain
3:27 AM 68.0 °F - 68.0 °F 100% 29.93 in 9.0 mi SSE 6.9 mph - N/A Rain , Thunderstorm Light Rain
3:47 AM 68.0 °F - 68.0 °F 100% 29.93 in 6.0 mi SSW 6.9 mph - N/A Rain , Thunderstorm Thunderstorms and Rain
3:58 AM 67.1 °F - 67.1 °F 100% 29.90 in 9.0 mi Variable 5.8 mph - 0.07 in Rain , Thunderstorm Light Thunderstorms and Rain
4:02 AM 66.2 °F - 66.2 °F 100% 29.91 in 10.0 mi Variable 4.6 mph - N/A Thunderstorm Thunderstorm
4:12 AM 66.2 °F - 66.2 °F 100% 29.91 in 10.0 mi Variable 2.3 mph - N/A Rain , Thunderstorm Light Thunderstorms and Rain
4:15 AM 66.2 °F - 66.2 °F 100% 29.90 in 9.0 mi SW 2.3 mph - N/A Rain Light Rain
4:38 AM 66.2 °F - 66.2 °F 100% 29.89 in 10.0 mi NNW 3.5 mph - N/A   Overcast
4:41 AM 66.2 °F - 66.2 °F 100% 29.90 in 10.0 mi NW 2.3 mph - N/A   Light Drizzle
4:52 AM 66.2 °F - 66.2 °F 100% 29.89 in 10.0 mi SSE 2.3 mph - N/A   Mostly Cloudy
4:58 AM 67.1 °F - 67.1 °F 100% 29.88 in 10.0 mi South 3.5 mph - 0.02 in   Mostly Cloudy
5:58 AM 66.7 °F - 66.7 °F 100% 29.86 in 5.0 mi West 3.5 mph - N/A   Partly Cloudy
6:43 AM 66.2 °F - 66.2 °F 100% 29.89 in 1.2 mi WNW 5.8 mph - N/A   Clear
6:48 AM 66.2 °F - 66.2 °F 100% 29.89 in 1.2 mi NW 4.6 mph - N/A   Clear
6:53 AM 66.2 °F - 66.2 °F 100% 29.89 in 4.0 mi NW 4.6 mph - N/A   Clear
6:58 AM 66.6 °F - 66.6 °F 100% 29.88 in 7.0 mi NW 6.9 mph - N/A   Clear
7:08 AM 66.2 °F - 66.2 °F 100% 29.90 in 2.5 mi WNW 4.6 mph - N/A   Clear
7:13 AM 66.2 °F - 66.2 °F 100% 29.90 in 6.0 mi WNW 4.6 mph - N/A   Clear
7:58 AM 67.8 °F - 67.8 °F 100% 29.89 in 10.0 mi West 4.6 mph - N/A   Clear
8:58 AM 72.0 °F - 70.5 °F 95% 29.90 in 10.0 mi NW 10.4 mph - N/A   Clear
9:58 AM 75.6 °F - 71.8 °F 88% 29.90 in 10.0 mi WNW 8.1 mph - N/A   Clear
10:58 AM 79.3 °F - 71.6 °F 77% 29.90 in 10.0 mi NW 8.1 mph - N/A   Clear
11:58 AM 82.8 °F 86.9 °F 70.5 °F 66% 29.89 in 10.0 mi NW 8.1 mph - N/A   Clear
12:58 PM 84.4 °F 89.0 °F 70.5 °F 63% 29.87 in 10.0 mi West 8.1 mph - N/A   Partly Cloudy
1:58 PM 84.6 °F 88.8 °F 69.6 °F 61% 29.86 in 10.0 mi WNW 12.7 mph 18.4 mph N/A   Scattered Clouds
2:58 PM 85.5 °F 90.8 °F 70.9 °F 62% 29.84 in 10.0 mi WNW 10.4 mph - N/A   Clear
3:58 PM 83.7 °F 88.0 °F 70.2 °F 64% 29.83 in 10.0 mi WNW 10.4 mph - N/A   Partly Cloudy
4:58 PM 85.5 °F 87.9 °F 66.4 °F 53% 29.82 in 10.0 mi NW 11.5 mph - N/A   Clear
5:58 PM 84.7 °F 85.6 °F 63.1 °F 48% 29.81 in 10.0 mi NW 12.7 mph 20.7 mph N/A   Clear
6:58 PM 82.8 °F 83.4 °F 61.5 °F 49% 29.81 in 10.0 mi NW 8.1 mph - N/A   Clear
7:58 PM 78.8 °F - 63.1 °F 59% 29.81 in 10.0 mi WNW 4.6 mph - N/A   Clear
8:58 PM 73.6 °F - 64.0 °F 72% 29.81 in 10.0 mi West 3.5 mph - N/A   Clear
9:58 PM 71.4 °F - 63.3 °F 76% 29.81 in 10.0 mi West 2.3 mph - N/A   Clear
10:58 PM 68.7 °F - 62.2 °F 80% 29.81 in 10.0 mi West 3.5 mph - N/A   Clear
11:58 PM 68.7 °F - 61.7 °F 78% 29.81 in 10.0 mi West 3.5 mph - N/A   Partly Cloudy